This demonstration page uses our WeatherBlox Daily Observations layout. Learn more.

Left ArrowRight Arrow

39.51506, -84.39828

Hourly Observations for February 13, 2021

Temp ( °F °C ) Dew Point ( °F °C ) Humidity (%) Winds ( mph kmh ) Pressure ( in mb ) Visibility ( mi km ) Precip ( " mm )
12:15 am 00:15 Cloudy 24 -4.3 19 -7.4 79 79 NNE 8 13 30.31 1026 10 16 0.00 0.00
12:35 am 00:35 Cloudy 24 -4.3 19 -7.4 79 79 NNE 8 13 30.31 1026 10 16 0.00 0.00
12:55 am 00:55 Cloudy 24 -4.3 19 -7.2 80 80 NE 7 11 30.31 1026 10 16 0.00 0.00
1:15 am 01:15 Cloudy 24 -4.3 19 -7.2 80 80 NNE 9 15 30.31 1026 10 16 0.00 0.00
1:35 am 01:35 Cloudy 24 -4.3 19 -7.2 80 80 NNE 12 19 30.30 1026 10 16 0.00 0.00
1:55 am 01:55 Cloudy 24 -4.3 19 -7.2 80 80 NNE 9 15 30.29 1026 10 16 0.00 0.00
2:15 am 02:15 Cloudy 24 -4.2 19 -7.2 80 80 NNE 6 9 30.29 1026 10 16 0.00 0.00
2:35 am 02:35 Cloudy 24 -4.3 19 -7.3 80 80 NNE 7 11 30.28 1025 10 16 0.00 0.00
2:55 am 02:55 Cloudy 24 -4.4 19 -7.3 80 80 N 7 11 30.28 1025 10 16 0.00 0.00
3:15 am 03:15 Cloudy 24 -4.5 19 -7.3 81 81 N 8 13 30.27 1025 10 16 0.00 0.00
3:35 am 03:35 Cloudy 24 -4.6 19 -7.4 81 81 N 8 13 30.26 1025 10 16 0.00 0.00
3:55 am 03:55 Cloudy 24 -4.6 19 -7.4 81 81 N 8 13 30.25 1024 10 16 0.00 0.00
4:15 am 04:15 Cloudy 24 -4.6 19 -7.4 81 81 N 9 15 30.25 1024 10 16 0.00 0.00
4:35 am 04:35 Cloudy 24 -4.7 19 -7.5 81 81 N 8 13 30.24 1024 10 16 0.00 0.00
4:55 am 04:55 Cloudy 24 -4.7 19 -7.4 82 82 NNE 7 11 30.24 1024 10 16 0.00 0.00
5:15 am 05:15 Cloudy 23 -4.8 19 -7.5 82 82 NNE 7 11 30.23 1024 10 16 0.00 0.00
5:35 am 05:35 Cloudy 23 -4.8 19 -7.5 82 82 N 9 15 30.23 1024 10 16 0.00 0.00
5:55 am 05:55 Cloudy 23 -4.8 19 -7.4 82 82 N 7 11 30.24 1024 10 16 0.00 0.00
6:15 am 06:15 Cloudy 23 -4.9 18 -7.6 82 82 N 8 13 30.24 1024 10 16 0.00 0.00
6:35 am 06:35 Cloudy 23 -5 18 -7.7 82 82 N 7 11 30.25 1024 10 16 0.00 0.00
6:55 am 06:55 Cloudy 23 -5 18 -7.8 81 81 NNE 7 11 30.24 1024 10 16 0.00 0.00
7:15 am 07:15 Cloudy 23 -5 18 -7.8 81 81 N 7 11 30.24 1024 10 16 0.00 0.00
7:35 am 07:35 Cloudy 23 -5 18 -8 80 80 NNE 8 13 30.24 1024 10 16 0.00 0.00
7:55 am 07:55 Cloudy 23 -4.9 18 -8 79 79 NNE 8 13 30.23 1024 10 16 0.00 0.00
8:15 am 08:15 Cloudy 23 -4.8 18 -8 79 79 NE 7 11 30.23 1024 10 16 0.00 0.00
8:35 am 08:35 Cloudy 24 -4.7 18 -8 78 78 NNE 7 11 30.24 1024 10 16 0.00 0.00
8:55 am 08:55 Cloudy 24 -4.6 17 -8.3 76 76 NNE 7 11 30.24 1024 10 16 0.00 0.00
9:15 am 09:15 Cloudy 24 -4.6 17 -8.2 76 76 NNE 8 13 30.24 1024 10 16 0.00 0.00
9:35 am 09:35 Cloudy 24 -4.6 17 -8.3 76 76 NNE 9 15 30.23 1024 10 16 0.00 0.00
9:55 am 09:55 Cloudy 24 -4.5 17 -8.4 74 74 NNE 10 17 30.22 1023 10 16 0.00 0.00
10:15 am 10:15 Cloudy 24 -4.4 17 -8.2 75 75 NNE 9 15 30.22 1023 10 16 0.00 0.00
10:35 am 10:35 Cloudy 24 -4.3 17 -8.1 75 75 NNE 9 15 30.22 1023 10 16 0.00 0.00
10:55 am 10:55 Cloudy 24 -4.2 18 -8 75 75 NNE 8 13 30.23 1024 10 16 0.00 0.00
11:15 am 11:15 Cloudy 25 -4.1 17 -8.1 74 74 NNE 8 13 30.22 1023 10 16 0.00 0.00
11:35 am 11:35 Cloudy 25 -4.1 18 -8 75 75 NNE 7 11 30.22 1023 10 16 0.00 0.00
11:55 am 11:55 Cloudy 25 -4 18 -7.9 75 75 N 8 13 30.21 1023 10 16 0.00 0.00
12:15 pm 12:15 Cloudy 25 -3.9 18 -7.9 74 74 NE 6 9 30.21 1023 10 16 0.00 0.00
12:35 pm 12:35 Cloudy 25 -3.7 18 -7.7 74 74 N 7 11 30.20 1023 10 16 0.00 0.00
12:55 pm 12:55 Cloudy 25 -3.7 18 -7.7 74 74 NNE 5 7 30.19 1022 10 16 0.00 0.00
1:15 pm 13:15 Cloudy 25 -3.7 18 -7.7 74 74 N 3 6 30.18 1022 10 16 0.00 0.00
1:35 pm 13:35 Cloudy 26 -3.6 18 -7.6 74 74 N 6 9 30.17 1022 10 16 0.00 0.00
1:55 pm 13:55 Cloudy 26 -3.5 18 -7.6 74 74 NNW 6 9 30.16 1021 10 16 0.00 0.00
2:15 pm 14:15 Cloudy 26 -3.5 18 -7.6 74 74 N 5 7 30.15 1021 10 16 0.00 0.00
2:35 pm 14:35 Cloudy 26 -3.5 19 -7.5 74 74 N 6 9 30.14 1021 10 16 0.00 0.00
2:55 pm 14:55 Cloudy 26 -3.4 19 -7.4 74 74 N 5 7 30.14 1021 10 16 0.00 0.00
3:15 pm 15:15 Cloudy 26 -3.4 19 -7.5 74 74 N 7 11 30.15 1021 10 16 0.00 0.00
3:35 pm 15:35 Cloudy 26 -3.5 19 -7.3 75 75 NW 7 11 30.15 1021 10 16 0.00 0.00
3:55 pm 15:55 Cloudy 26 -3.5 19 -7.4 75 75 N 7 11 30.15 1021 10 16 0.00 0.00
4:15 pm 16:15 Cloudy 26 -3.6 19 -7.2 76 76 NNW 6 9 30.16 1021 10 16 0.00 0.00
4:35 pm 16:35 Cloudy 26 -3.6 19 -7 78 78 NW 7 11 30.17 1022 10 16 0.00 0.00
4:55 pm 16:55 Cloudy 26 -3.6 20 -6.8 79 79 NNW 9 15 30.18 1022 10 16 0.00 0.00
5:15 pm 17:15 Cloudy 25 -3.8 20 -6.6 81 81 NNW 9 15 30.19 1022 10 16 0.00 0.00
5:35 pm 17:35 Cloudy with Mist and Fog 25 -4 21 -6.1 86 86 NNW 9 15 30.20 1023 7 11 0.00 0.00
5:55 pm 17:55 Cloudy 25 -4 22 -5.7 88 88 N 5 7 30.20 1023 7 11 0.00 0.00
6:15 pm 18:15 Cloudy with Mist and Fog 25 -4.1 22 -5.6 89 89 NNW 8 13 30.20 1023 7 11 0.00 0.00
6:35 pm 18:35 Cloudy with Mist and Fog 24 -4.2 22 -5.3 92 92 NW 7 11 30.21 1023 5 8 0.00 0.00
6:55 pm 18:55 Cloudy 24 -4.3 22 -5.4 92 92 N 7 11 30.20 1023 7 11 0.00 0.00
7:15 pm 19:15 Cloudy 24 -4.3 22 -5.7 90 90 N 7 11 30.21 1023 7 11 0.00 0.00
7:35 pm 19:35 Cloudy 24 -4.2 22 -5.8 89 89 NNW 6 9 30.21 1023 7 11 0.00 0.00
7:55 pm 19:55 Cloudy 24 -4.3 21 -6 88 88 NW 8 13 30.22 1023 7 11 0.00 0.00
8:15 pm 20:15 Cloudy 24 -4.3 21 -6 88 88 NNW 7 11 30.23 1024 7 11 0.00 0.00
8:35 pm 20:35 Cloudy 24 -4.3 21 -6.2 87 87 NNW 7 11 30.24 1024 10 16 0.00 0.00
8:55 pm 20:55 Cloudy 24 -4.2 21 -6.1 87 87 NNW 5 7 30.24 1024 10 16 0.00 0.00
9:15 pm 21:15 Cloudy 24 -4.2 21 -6.3 85 85 N 9 15 30.25 1024 10 16 0.00 0.00
9:35 pm 21:35 Cloudy 24 -4.4 20 -6.8 84 84 NNW 5 7 30.25 1024 10 16 0.00 0.00
9:55 pm 21:55 Cloudy 24 -4.4 20 -6.8 84 84 NNW 6 9 30.26 1025 10 16 0.00 0.00
10:15 pm 22:15 Cloudy 24 -4.4 20 -6.8 84 84 NNW 6 9 30.27 1025 10 16 0.00 0.00
10:35 pm 22:35 Cloudy 24 -4.4 20 -6.9 83 83 NNW 7 11 30.28 1025 10 16 0.00 0.00
10:55 pm 22:55 Cloudy 24 -4.4 19 -7.2 81 81 NNW 6 9 30.28 1025 10 16 0.00 0.00
11:15 pm 23:15 Cloudy 24 -4.4 19 -7.1 82 82 N 5 7 30.28 1025 10 16 0.00 0.00
11:35 pm 23:35 Cloudy 24 -4.4 19 -7.1 82 82 NNW 5 7 30.28 1025 10 16 0.00 0.00
11:55 pm 23:55 Cloudy 24 -4.4 19 -7.2 81 81 N 5 7 30.28 1025 10 16 0.00 0.00

Powered by AerisWeather